Tracking 28238 objects as of 28-Nov-2023
HD Live streaming from Space Station
objects crossing your sky now

STARLINK-4383

Track STARLINK-4383 now!
10-day predictions
STARLINK-4383 is classified as:


NORAD ID: 53473
Int'l Code: 2022-099J
Perigee: 568.8 km
Apogee: 571.5 km
Inclination: 97.7 °
Period: 95.9 minutes
Semi major axis: 6941 km
RCS: Unknown
Launch date: August 12, 2022
Source: United States (US)
Launch site: AIR FORCE WESTERN TEST RANGE (AFWTR)
Your satellite tracking list
Your tracking list is empty




NASA's NSSDC Master Catalog

Two Line Element Set (TLE):
1 53473U 22099J   23332.29138363  .00000163  00000-0  17326-4 0  9995
2 53473  97.6581  91.0225 0001910 253.6722 106.4292 15.01265845 71095
Source of the keplerian elements: AFSPC